Weather History for Big Bear City, CA

Change the Weather History Date:

Thursday, January 17, 2013

  Actual Average (KBUO) Record (KBUO)
Temperature  
Mean Temperature -1 °C -  
Max Temperature 8 °C 14 °C 20 °C (2000)
Min Temperature -9 °C 5 °C -2 °C (2001)
Degree Days  
Heating Degree Days 34    
Moisture  
Dew Point -13 °C    
Average Humidity 49    
Maximum Humidity 73    
Minimum Humidity 15    
Precipitation  
Precipitation 0.00 mm - - ()
Sea Level Pressure  
Sea Level Pressure 1027 hPa    
Wind  
Wind Speed 5 km/h (East)    
Max Wind Speed 19 km/h    
Max Gust Speed -    
Visibility 16 kilometers    
Events      
Averages and records for this station are not official NWS values.
T = Trace of Precipitation, MM = Missing Value Source: NWS Daily Summary

Daily Weather History Graph

Daily Weather History Graph

Search for Another Location

Airport:

Trip Planner

Search our weather history database for the weather conditions in past years. The results will help you decide how hot, cold, wet, or windy it might be!

Date:

Astronomy

Jan. 17, 2013 Rise Set
Actual Time 6:52 AM PST 5:03 PM PST
Civil Twilight 6:25 AM PST 5:30 PM PST
Nautical Twilight 5:54 AM PST 6:00 PM PST
Astronomical Twilight 5:24 AM PST 6:30 PM PST
Moon 10:21 AM PST (1/17) 11:37 PM PST (1/17)
Length of Visible Light 11h 04m
Length of Day
10h 10m
Waxing Crescent, 39% of the Moon is Illuminated
Jan 17
Waxing Crescent
Jan 18
First Quarter
Jan 26
Full
Feb 3
Last Quarter
Feb 9
New

Hourly Weather History & Observations

Time (PST) Temp. Windchill Dew Point Humidity Pressure Visibility Wind Dir Wind Speed Gust Speed Precip Events Conditions
12:15 AM -5.0 °C - -11.0 °C 63% 1028.0 hPa 16.1 km Calm Calm - N/A   Clear
12:35 AM -5.0 °C -8.4 °C -12.0 °C 59% 1028.0 hPa 16.1 km ENE 7.4 km/h / 2.1 m/s - N/A   Clear
12:55 AM -5.0 °C -8.4 °C -12.0 °C 59% 1028.3 hPa 11.3 km ENE 7.4 km/h / 2.1 m/s - N/A   Clear
1:15 AM -5.0 °C -8.4 °C -12.0 °C 59% 1028.3 hPa 16.1 km ENE 7.4 km/h / 2.1 m/s - N/A   Clear
1:35 AM -5.0 °C - -12.0 °C 59% 1028.0 hPa 16.1 km Calm Calm - N/A   Clear
1:55 AM -6.0 °C - -12.0 °C 63% 1028.0 hPa 11.3 km Calm Calm - N/A   Clear
2:15 AM -6.0 °C - -11.0 °C 68% 1028.0 hPa 16.1 km Calm Calm - N/A   Clear
2:35 AM -6.0 °C - -12.0 °C 63% 1027.7 hPa 16.1 km Calm Calm - N/A   Clear
2:55 AM -6.0 °C - -12.0 °C 63% 1027.3 hPa 16.1 km Calm Calm - N/A   Clear
3:15 AM -6.0 °C - -12.0 °C 63% 1027.3 hPa 11.3 km Calm Calm - N/A   Clear
3:35 AM -7.0 °C - -12.0 °C 68% 1027.3 hPa 16.1 km Calm Calm - N/A   Clear
3:55 AM -7.0 °C - -12.0 °C 68% 1027.0 hPa 16.1 km Calm Calm - N/A   Clear
4:15 AM -7.0 °C - -13.0 °C 63% 1027.0 hPa 16.1 km Calm Calm - N/A   Clear
4:35 AM -7.0 °C - -13.0 °C 63% 1027.3 hPa 16.1 km Calm Calm - N/A   Clear
4:55 AM -8.0 °C - -13.0 °C 68% 1027.3 hPa 16.1 km Calm Calm - N/A   Clear
5:15 AM -8.0 °C - -13.0 °C 68% 1027.0 hPa 16.1 km Calm Calm - N/A   Clear
5:35 AM -8.0 °C - -13.0 °C 68% 1027.0 hPa 16.1 km Calm Calm - N/A   Clear
5:55 AM -8.0 °C - -13.0 °C 68% 1027.0 hPa 16.1 km Calm Calm - N/A   Clear
6:15 AM -8.0 °C - -13.0 °C 68% 1027.3 hPa 16.1 km Calm Calm - N/A   Clear
6:35 AM -8.0 °C -11.9 °C -14.0 °C 63% 1027.3 hPa 16.1 km East 7.4 km/h / 2.1 m/s - N/A   Clear
6:55 AM -9.0 °C -12.1 °C -14.0 °C 68% 1027.3 hPa 16.1 km ENE 5.6 km/h / 1.5 m/s - N/A   Clear
7:15 AM -9.0 °C - -13.0 °C 73% 1027.3 hPa 16.1 km Calm Calm - N/A   Clear
7:35 AM -8.0 °C - -13.0 °C 68% 1028.0 hPa 16.1 km Calm Calm - N/A   Clear
7:55 AM -7.0 °C - -12.0 °C 68% 1028.0 hPa 16.1 km Calm Calm - N/A   Clear
8:15 AM -5.0 °C - -12.0 °C 59% 1028.0 hPa 16.1 km Calm Calm - N/A   Clear
8:35 AM -3.0 °C - -11.0 °C 55% 1028.3 hPa 16.1 km Calm Calm - N/A   Clear
8:55 AM 0.0 °C -1.8 °C -10.0 °C 48% 1028.3 hPa 16.1 km East 5.6 km/h / 1.5 m/s - N/A   Clear
9:15 AM 3.0 °C -0.7 °C -15.0 °C 26% 1028.3 hPa 16.1 km ENE 14.8 km/h / 4.1 m/s - N/A   Clear
9:35 AM 4.0 °C 0.0 °C -16.0 °C 22% 1028.7 hPa 16.1 km ENE 18.5 km/h / 5.1 m/s - N/A   Clear
9:55 AM 5.0 °C 1.5 °C -18.0 °C 18% 1028.7 hPa 16.1 km East 16.7 km/h / 4.6 m/s - N/A   Clear
10:15 AM 6.0 °C 2.8 °C -18.0 °C 16% 1028.3 hPa 16.1 km ENE 16.7 km/h / 4.6 m/s - N/A   Clear
10:35 AM 6.0 °C 3.7 °C -18.0 °C 16% 1028.0 hPa 16.1 km East 11.1 km/h / 3.1 m/s - N/A   Clear
10:55 AM 6.0 °C 3.7 °C -17.0 °C 18% 1027.7 hPa 16.1 km ESE 11.1 km/h / 3.1 m/s - N/A   Clear
11:15 AM 7.0 °C 4.5 °C -18.0 °C 15% 1027.3 hPa 16.1 km East 13.0 km/h / 3.6 m/s - N/A   Clear
11:35 AM 7.0 °C 4.5 °C -18.0 °C 15% 1026.6 hPa 16.1 km ENE 13.0 km/h / 3.6 m/s - N/A   Clear
11:55 AM 8.0 °C 5.5 °C -17.0 °C 16% 1026.3 hPa 16.1 km East 14.8 km/h / 4.1 m/s - N/A   Clear
12:15 PM 8.0 °C 5.3 °C -16.0 °C 17% 1026.0 hPa 16.1 km East 16.7 km/h / 4.6 m/s - N/A   Clear
12:35 PM 8.0 °C 5.5 °C -17.0 °C 16% 1025.6 hPa 16.1 km East 14.8 km/h / 4.1 m/s - N/A   Clear
12:55 PM 8.0 °C 5.5 °C -16.0 °C 17% 1025.3 hPa 16.1 km East 14.8 km/h / 4.1 m/s - N/A   Clear
1:15 PM 8.0 °C 5.0 °C -16.0 °C 17% 1025.3 hPa 16.1 km East 18.5 km/h / 5.1 m/s - N/A   Clear
1:35 PM 8.0 °C 5.5 °C -15.0 °C 18% 1025.3 hPa 16.1 km East 14.8 km/h / 4.1 m/s - N/A   Clear
1:55 PM 8.0 °C 5.0 °C -16.0 °C 17% 1024.9 hPa 16.1 km East 18.5 km/h / 5.1 m/s - N/A   Clear
2:55 PM 8.0 °C 5.3 °C -15.0 °C 18% 1025.3 hPa 16.1 km ENE 16.7 km/h / 4.6 m/s - N/A   Clear
3:35 PM 8.0 °C 6.1 °C -15.0 °C 18% 1025.3 hPa 16.1 km ENE 11.1 km/h / 3.1 m/s - N/A   Clear
5:55 PM 0.0 °C - -11.0 °C 44% 1026.3 hPa 16.1 km Calm Calm - N/A   Clear
6:15 PM -1.0 °C - -11.0 °C 47% 1026.3 hPa 16.1 km Calm Calm - N/A   Clear
6:55 PM -3.0 °C - -11.0 °C 55% 1026.6 hPa 16.1 km Calm Calm - N/A   Clear
7:15 PM -3.0 °C - -11.0 °C 55% 1026.3 hPa 16.1 km Calm Calm - N/A   Clear
7:35 PM -3.0 °C - -12.0 °C 51% 1026.6 hPa 16.1 km Calm Calm - N/A   Clear
7:55 PM -3.0 °C - -12.0 °C 51% 1026.6 hPa 16.1 km Calm Calm - N/A   Clear
9:15 PM -5.0 °C - -11.0 °C 63% 1026.6 hPa 16.1 km Calm Calm - N/A   Clear
9:35 PM -5.0 °C - -11.0 °C 63% 1026.6 hPa 16.1 km Calm Calm - N/A   Clear
9:55 PM -6.0 °C - -11.0 °C 68% 1026.3 hPa 16.1 km Calm Calm - N/A   Clear
10:15 PM -6.0 °C - -12.0 °C 63% 1026.3 hPa 16.1 km Calm Calm - N/A   Clear
10:35 PM -6.0 °C - -12.0 °C 63% 1026.3 hPa 16.1 km Calm Calm - N/A   Clear
10:55 PM -6.0 °C - -12.0 °C 63% 1026.3 hPa 16.1 km Calm Calm - N/A   Clear
11:15 PM -7.0 °C - -12.0 °C 68% 1026.3 hPa 16.1 km Calm Calm - N/A   Clear
11:35 PM -7.0 °C - -12.0 °C 68% 1026.3 hPa 16.1 km Calm Calm - N/A   Clear
11:55 PM -7.0 °C - -13.0 °C 63% 1026.3 hPa 16.1 km Calm Calm - N/A   Clear